[TLELIST] Archives

 

[list_settings.list_name] Current TLEs

June 27th 2010 PST

HST 1 20580U 90037B 10178.02137213 .00000322 00000-0 11817-4 0 5906 2 20580 028.4684 175.6594 0003136 303.6438 056.3912 15.00989994906236 ISS (ZARYA) 1 25544U 98067A 10178.50184692 .00007325 00000-0 59268-4 0 3975 2 25544 051.6460 177.8125 0009626 015.3042 123.6999 15.72014075665090 CXO 1 25867U 99040B 10177.00000000 -.00000494 00000-0 10000-3 0 4814 2 25867 067.1808 053.0931 8184942 275.2763 359.4793 00.37805454 6427 ____________________________________________________________________ These 2-Line ...Continue Reading

[list_settings.list_name] Current TLEs

June 26th 2010 PST

HST 1 20580U 90037B 10175.09572488 .00000304 00000-0 10413-4 0 5896 2 20580 028.4685 194.7589 0003204 272.2970 087.7189 15.00988968905795 ISS (ZARYA) 1 25544U 98067A 10177.34902157 .00005543 00000-0 46046-4 0 3891 2 25544 051.6472 183.7143 0009692 010.5030 080.0039 15.71989021664918 CXO 1 25867U 99040B 10177.00000000 -.00000494 00000-0 10000-3 0 4814 2 25867 067.1808 053.0931 8184942 275.2763 359.4793 00.37805454 6427 ____________________________________________________________________ These 2-Line ...Continue Reading

[list_settings.list_name] Current TLEs

June 25th 2010 PST

HST 1 20580U 90037B 10175.09572488 .00000304 00000-0 10413-4 0 5896 2 20580 028.4685 194.7589 0003204 272.2970 087.7189 15.00988968905795 ISS (ZARYA) 1 25544U 98067A 10176.46989968 .00005229 00000-0 43725-4 0 3845 2 25544 051.6466 188.2139 0009437 007.8601 144.2218 15.71976695664775 CXO 1 25867U 99040B 10177.00000000 -.00000494 00000-0 10000-3 0 4814 2 25867 067.1808 053.0931 8184942 275.2763 359.4793 00.37805454 6427 ____________________________________________________________________ These 2-Line ...Continue Reading

[list_settings.list_name] Current TLEs

June 24th 2010 PST

HST 1 20580U 90037B 10175.09572488 .00000304 00000-0 10413-4 0 5896 2 20580 028.4685 194.7589 0003204 272.2970 087.7189 15.00988968905795 ISS (ZARYA) 1 25544U 98067A 10175.51712731 .00005400 00000-0 45024-4 0 3814 2 25544 051.6473 193.0930 0009481 003.6027 153.0233 15.71966335664620 CXO 1 25867U 99040B 10171.70833333 -.00000282 00000-0 10000-3 0 4802 2 25867 067.1539 053.3386 8172370 275.2557 359.1889 00.37806575 6404 ____________________________________________________________________ These 2-Line ...Continue Reading

[list_settings.list_name] Current TLEs

June 23rd 2010 PST

HST 1 20580U 90037B 10173.16745900 .00000341 00000-0 13262-4 0 5888 2 20580 028.4690 207.3457 0003415 249.6459 110.3769 15.00988722905504 ISS (ZARYA) 1 25544U 98067A 10174.17359088 .00005450 00000-0 45430-4 0 3745 2 25544 051.6463 199.9673 0009222 358.4862 109.8878 15.71950172664412 CXO 1 25867U 99040B 10171.70833333 -.00000282 00000-0 10000-3 0 4802 2 25867 067.1539 053.3386 8172370 275.2557 359.1889 00.37806575 6404 ____________________________________________________________________ These 2-Line ...Continue Reading

[list_settings.list_name] Current TLEs

June 22nd 2010 PST

HST 1 20580U 90037B 10173.16745900 .00000341 00000-0 13262-4 0 5888 2 20580 028.4690 207.3457 0003415 249.6459 110.3769 15.00988722905504 ISS (ZARYA) 1 25544U 98067A 10173.34829567 .00005859 00000-0 48497-4 0 3690 2 25544 051.6463 204.1905 0009206 356.0529 118.8326 15.71941568664287 CXO 1 25867U 99040B 10171.70833333 -.00000282 00000-0 10000-3 0 4802 2 25867 067.1539 053.3386 8172370 275.2557 359.1889 00.37806575 6404 ____________________________________________________________________ These 2-Line ...Continue Reading

[list_settings.list_name] Current TLEs

June 21st 2010 PST

HST 1 20580U 90037B 10171.57165291 .00000378 00000-0 16061-4 0 5879 2 20580 028.4691 217.7637 0003353 233.3798 126.6479 15.00988451905267 ISS (ZARYA) 1 25544U 98067A 10172.52800016 .00007206 00000-0 58581-4 0 3634 2 25544 051.6458 208.3900 0009068 351.4683 158.2772 15.71935773664158 CXO 1 25867U 99040B 10171.70833333 -.00000282 00000-0 10000-3 0 4802 2 25867 067.1539 053.3386 8172370 275.2557 359.1889 00.37806575 6404 ____________________________________________________________________ These 2-Line ...Continue Reading

[list_settings.list_name] Current TLEs

June 20th 2010 PST

HST 1 20580U 90037B 10170.50778350 .00000378 00000-0 16095-4 0 5863 2 20580 028.4693 224.7076 0003390 221.5634 138.4771 15.00988035905100 ISS (ZARYA) 1 25544U 98067A 10171.36952118 .00009295 00000-0 74218-4 0 3563 2 25544 051.6455 214.3205 0009320 347.0695 082.5254 15.71925876663971 CXO 1 25867U 99040B 10171.70833333 -.00000282 00000-0 10000-3 0 4802 2 25867 067.1539 053.3386 8172370 275.2557 359.1889 00.37806575 6404 ____________________________________________________________________ These 2-Line ...Continue Reading

[list_settings.list_name] Current TLEs

June 19th 2010 PST

HST 1 20580U 90037B 10167.58213882 .00000352 00000-0 14080-4 0 5854 2 20580 028.4697 243.8094 0003506 192.4456 167.6113 15.00986645904662 ISS (ZARYA) 1 25544U 98067A 10170.49191907 .00009825 00000-0 78226-4 0 3503 2 25544 051.6464 218.8113 0009395 343.7384 156.2581 15.71911186663834 CXO 1 25867U 99040B 10169.04166667 -.00000066 00000-0 10000-3 0 4793 2 25867 067.1356 053.4330 8167771 275.2835 356.0893 00.37805897 6394 ____________________________________________________________________ These 2-Line ...Continue Reading

[list_settings.list_name] Current TLEs

June 18th 2010 PST

HST 1 20580U 90037B 10167.58213882 .00000352 00000-0 14080-4 0 5854 2 20580 028.4697 243.8094 0003506 192.4456 167.6113 15.00986645904662 ISS (ZARYA) 1 25544U 98067A 10169.53174837 .00010362 00000-0 82314-4 0 3443 2 25544 051.6458 223.7309 0009151 339.9391 122.9427 15.71891736663684 CXO 1 25867U 99040B 10169.04166667 -.00000066 00000-0 10000-3 0 4793 2 25867 067.1356 053.4330 8167771 275.2835 356.0893 00.37805897 6394 ____________________________________________________________________ These 2-Line ...Continue Reading
  • This mailing list is a public mailing list - anyone may join or leave, at any time.
  • This mailing list is announce-only.

International Space Station (ISS) / Hubble Space Telescope (HST) / Chandra X-Ray Observatory Orbital Data via EMAIL

Privacy Policy:

Private list